Year,Month,Day,Hour,Minute,Value (Times are PST for temperature in C)
2020,04,10,00,00,6.40
2020,04,10,00,01,6.40
2020,04,10,00,02,6.40
2020,04,10,00,03,6.40
2020,04,10,00,04,6.40
2020,04,10,00,05,6.40
2020,04,10,00,06,6.40
2020,04,10,00,07,6.40
2020,04,10,00,08,6.40
2020,04,10,00,09,6.40
2020,04,10,00,10,6.40
2020,04,10,00,11,6.40
2020,04,10,00,12,6.40
2020,04,10,00,13,6.40
2020,04,10,00,14,6.40
2020,04,10,00,15,6.30
2020,04,10,00,16,6.30
2020,04,10,00,17,6.30
2020,04,10,00,18,6.30
2020,04,10,00,19,6.30
2020,04,10,00,20,6.30
2020,04,10,00,21,6.30
2020,04,10,00,22,6.30
2020,04,10,00,23,6.30
2020,04,10,00,24,6.30
2020,04,10,00,25,6.30
2020,04,10,00,26,6.30
2020,04,10,00,27,6.30
2020,04,10,00,28,6.30
2020,04,10,00,29,6.30
2020,04,10,00,30,6.20
2020,04,10,00,31,6.20
2020,04,10,00,32,6.20
2020,04,10,00,33,6.20
2020,04,10,00,34,6.20
2020,04,10,00,35,6.20
2020,04,10,00,36,6.20
2020,04,10,00,37,6.20
2020,04,10,00,38,6.20
2020,04,10,00,39,6.20
2020,04,10,00,40,6.10
2020,04,10,00,41,6.10
2020,04,10,00,42,6.10
2020,04,10,00,43,6.10
2020,04,10,00,44,6.10
2020,04,10,00,45,6.10
2020,04,10,00,46,6.10
2020,04,10,00,47,6.10
2020,04,10,00,48,6.00
2020,04,10,00,49,6.00
2020,04,10,00,50,6.10
2020,04,10,00,51,6.10
2020,04,10,00,52,6.10
2020,04,10,00,53,6.10
2020,04,10,00,54,6.20
2020,04,10,00,55,6.20
2020,04,10,00,56,6.20
2020,04,10,00,57,6.20
2020,04,10,00,58,6.20
2020,04,10,00,59,6.20
2020,04,10,01,00,6.20
2020,04,10,01,01,6.20
2020,04,10,01,02,6.20
2020,04,10,01,03,6.20
2020,04,10,01,04,6.10
2020,04,10,01,05,6.10
2020,04,10,01,06,6.10
2020,04,10,01,07,6.10
2020,04,10,01,08,6.00
2020,04,10,01,09,6.00
2020,04,10,01,10,6.00
2020,04,10,01,11,6.00
2020,04,10,01,12,6.00
2020,04,10,01,13,5.90
2020,04,10,01,14,5.90
2020,04,10,01,15,5.90
2020,04,10,01,16,5.90
2020,04,10,01,17,5.90
2020,04,10,01,18,5.90
2020,04,10,01,19,5.80
2020,04,10,01,20,5.80
2020,04,10,01,21,5.80
2020,04,10,01,22,5.80
2020,04,10,01,23,5.80
2020,04,10,01,24,5.80
2020,04,10,01,25,5.80
2020,04,10,01,26,5.80
2020,04,10,01,27,5.80
2020,04,10,01,28,5.70
2020,04,10,01,29,5.70
2020,04,10,01,30,5.70
2020,04,10,01,31,5.70
2020,04,10,01,32,5.70
2020,04,10,01,33,5.70
2020,04,10,01,34,5.70
2020,04,10,01,35,5.70
2020,04,10,01,36,5.70
2020,04,10,01,37,5.70
2020,04,10,01,38,5.70
2020,04,10,01,39,5.60
2020,04,10,01,40,5.60
2020,04,10,01,41,5.60
2020,04,10,01,42,5.60
2020,04,10,01,43,5.60
2020,04,10,01,44,5.60
2020,04,10,01,45,5.60
2020,04,10,01,46,5.60
2020,04,10,01,47,5.60
2020,04,10,01,48,5.60
2020,04,10,01,49,5.60
2020,04,10,01,50,5.70
2020,04,10,01,51,5.70
2020,04,10,01,52,5.70
2020,04,10,01,53,5.70
2020,04,10,01,54,5.70
2020,04,10,01,55,5.70
2020,04,10,01,56,5.70
2020,04,10,01,57,5.70
2020,04,10,01,58,5.70
2020,04,10,01,59,5.70
2020,04,10,02,00,5.70
2020,04,10,02,01,5.70
2020,04,10,02,02,5.60
2020,04,10,02,03,5.60
2020,04,10,02,04,5.60
2020,04,10,02,05,5.60
2020,04,10,02,06,5.60
2020,04,10,02,07,5.60
2020,04,10,02,08,5.60
2020,04,10,02,09,5.60
2020,04,10,02,10,5.60
2020,04,10,02,11,5.50
2020,04,10,02,12,5.50
2020,04,10,02,13,5.50
2020,04,10,02,14,5.50
2020,04,10,02,15,5.50
2020,04,10,02,16,5.50
2020,04,10,02,17,5.50
2020,04,10,02,18,5.50
2020,04,10,02,19,5.50
2020,04,10,02,20,5.50
2020,04,10,02,21,5.50
2020,04,10,02,22,5.50
2020,04,10,02,23,5.50
2020,04,10,02,24,5.50
2020,04,10,02,25,5.60
2020,04,10,02,26,5.60
2020,04,10,02,27,5.60
2020,04,10,02,28,5.60
2020,04,10,02,29,5.60
2020,04,10,02,30,5.60
2020,04,10,02,31,5.60
2020,04,10,02,32,5.60
2020,04,10,02,33,5.60
2020,04,10,02,34,5.60
2020,04,10,02,35,5.50
2020,04,10,02,36,5.50
2020,04,10,02,37,5.50
2020,04,10,02,38,5.50
2020,04,10,02,39,5.50
2020,04,10,02,40,5.50
2020,04,10,02,41,5.40
2020,04,10,02,42,5.40
2020,04,10,02,43,5.40
2020,04,10,02,44,5.40
2020,04,10,02,45,5.40
2020,04,10,02,46,5.40
2020,04,10,02,47,5.40
2020,04,10,02,48,5.40
2020,04,10,02,49,5.40
2020,04,10,02,50,5.30
2020,04,10,02,51,5.30
2020,04,10,02,52,5.30
2020,04,10,02,53,5.30
2020,04,10,02,54,5.30
2020,04,10,02,55,5.40
2020,04,10,02,56,5.40
2020,04,10,02,57,5.40
2020,04,10,02,58,5.40
2020,04,10,02,59,5.40
2020,04,10,03,00,5.40
2020,04,10,03,01,5.40
2020,04,10,03,02,5.50
2020,04,10,03,03,5.50
2020,04,10,03,04,5.50
2020,04,10,03,05,5.50
2020,04,10,03,06,5.40
2020,04,10,03,07,5.40
2020,04,10,03,08,5.40
2020,04,10,03,09,5.40
2020,04,10,03,10,5.40
2020,04,10,03,11,5.40
2020,04,10,03,12,5.40
2020,04,10,03,13,5.40
2020,04,10,03,14,5.30
2020,04,10,03,15,5.30
2020,04,10,03,16,5.30
2020,04,10,03,17,5.30
2020,04,10,03,18,5.30
2020,04,10,03,19,5.30
2020,04,10,03,20,5.30
2020,04,10,03,21,5.30
2020,04,10,03,22,5.30
2020,04,10,03,23,5.20
2020,04,10,03,24,5.20
2020,04,10,03,25,5.20
2020,04,10,03,26,5.20
2020,04,10,03,27,5.20
2020,04,10,03,28,5.20
2020,04,10,03,29,5.20
2020,04,10,03,30,5.20
2020,04,10,03,31,5.20
2020,04,10,03,32,5.20
2020,04,10,03,33,5.20
2020,04,10,03,34,5.20
2020,04,10,03,35,5.20
2020,04,10,03,36,5.20
2020,04,10,03,37,5.20
2020,04,10,03,38,5.20
2020,04,10,03,39,5.20
2020,04,10,03,40,5.20
2020,04,10,03,41,5.20
2020,04,10,03,42,5.20
2020,04,10,03,43,5.20
2020,04,10,03,44,5.20
2020,04,10,03,45,5.20
2020,04,10,03,46,5.20
2020,04,10,03,47,5.20
2020,04,10,03,48,5.20
2020,04,10,03,49,5.20
2020,04,10,03,50,5.20
2020,04,10,03,51,5.20
2020,04,10,03,52,5.20
2020,04,10,03,53,5.20
2020,04,10,03,54,5.20
2020,04,10,03,55,5.20
2020,04,10,03,56,5.10
2020,04,10,03,57,5.10
2020,04,10,03,58,5.10
2020,04,10,03,59,5.10
2020,04,10,04,00,5.10
2020,04,10,04,01,5.10
2020,04,10,04,02,5.10
2020,04,10,04,03,5.00
2020,04,10,04,04,5.00
2020,04,10,04,05,5.00
2020,04,10,04,06,5.00
2020,04,10,04,07,5.00
2020,04,10,04,08,4.90
2020,04,10,04,09,4.90
2020,04,10,04,10,4.90
2020,04,10,04,11,4.90
2020,04,10,04,12,4.90
2020,04,10,04,13,4.90
2020,04,10,04,14,4.80
2020,04,10,04,15,4.80
2020,04,10,04,16,4.80
2020,04,10,04,17,4.80
2020,04,10,04,18,4.90
2020,04,10,04,19,4.90
2020,04,10,04,20,4.90
2020,04,10,04,21,4.90
2020,04,10,04,22,4.90
2020,04,10,04,23,4.90
2020,04,10,04,24,4.90
2020,04,10,04,25,4.90
2020,04,10,04,26,4.90
2020,04,10,04,27,4.90
2020,04,10,04,28,4.90
2020,04,10,04,29,5.00
2020,04,10,04,30,5.00
2020,04,10,04,31,5.00
2020,04,10,04,32,5.00
2020,04,10,04,33,5.10
2020,04,10,04,34,5.10
2020,04,10,04,35,5.10
2020,04,10,04,36,5.00
2020,04,10,04,37,5.00
2020,04,10,04,38,5.00
2020,04,10,04,39,5.00
2020,04,10,04,40,5.00
2020,04,10,04,41,5.00
2020,04,10,04,42,4.90
2020,04,10,04,43,4.90
2020,04,10,04,44,4.90
2020,04,10,04,45,4.90
2020,04,10,04,46,4.90
2020,04,10,04,47,4.80
2020,04,10,04,48,4.80
2020,04,10,04,49,4.80
2020,04,10,04,50,4.80
2020,04,10,04,51,4.70
2020,04,10,04,52,4.70
2020,04,10,04,53,4.70
2020,04,10,04,54,4.70
2020,04,10,04,55,4.70
2020,04,10,04,56,4.70
2020,04,10,04,57,4.70
2020,04,10,04,58,4.70
2020,04,10,04,59,4.70
2020,04,10,05,00,4.70
2020,04,10,05,01,4.70
2020,04,10,05,02,4.80
2020,04,10,05,03,4.80
2020,04,10,05,04,4.80
2020,04,10,05,05,4.90
2020,04,10,05,06,4.90
2020,04,10,05,07,5.00
2020,04,10,05,08,5.10
2020,04,10,05,09,5.10
2020,04,10,05,10,5.10
2020,04,10,05,11,5.20
2020,04,10,05,12,5.20
2020,04,10,05,13,5.20
2020,04,10,05,14,5.20
2020,04,10,05,15,5.20
2020,04,10,05,16,5.20
2020,04,10,05,17,5.20
2020,04,10,05,18,5.20
2020,04,10,05,19,5.20
2020,04,10,05,20,5.10
2020,04,10,05,21,5.10
2020,04,10,05,22,5.10
2020,04,10,05,23,5.10
2020,04,10,05,24,5.10
2020,04,10,05,25,5.00
2020,04,10,05,26,5.00
2020,04,10,05,27,5.00
2020,04,10,05,28,5.10
2020,04,10,05,29,5.10
2020,04,10,05,30,5.10
2020,04,10,05,31,5.10
2020,04,10,05,32,5.20
2020,04,10,05,33,5.20
2020,04,10,05,34,5.20
2020,04,10,05,35,5.20
2020,04,10,05,36,5.20
2020,04,10,05,37,5.20
2020,04,10,05,38,5.20
2020,04,10,05,39,5.20
2020,04,10,05,40,5.20
2020,04,10,05,41,5.20
2020,04,10,05,42,5.20
2020,04,10,05,43,5.20
2020,04,10,05,44,5.20
2020,04,10,05,45,5.10
2020,04,10,05,46,5.10
2020,04,10,05,47,5.10
2020,04,10,05,48,5.00
2020,04,10,05,49,5.00
2020,04,10,05,50,5.00
2020,04,10,05,51,4.90
2020,04,10,05,52,4.90
2020,04,10,05,53,4.90
2020,04,10,05,54,4.90
2020,04,10,05,55,4.90
2020,04,10,05,56,4.80
2020,04,10,05,57,4.80
2020,04,10,05,58,4.80
2020,04,10,05,59,4.80
2020,04,10,06,00,4.80
2020,04,10,06,01,4.80
2020,04,10,06,02,4.80
2020,04,10,06,03,4.80
2020,04,10,06,04,4.80
2020,04,10,06,05,4.70
2020,04,10,06,06,4.70
2020,04,10,06,07,4.70
2020,04,10,06,08,4.70
2020,04,10,06,09,4.70
2020,04,10,06,10,4.70
2020,04,10,06,11,4.70
2020,04,10,06,12,4.70
2020,04,10,06,13,4.70
2020,04,10,06,14,4.70
2020,04,10,06,15,4.60
2020,04,10,06,16,4.60
2020,04,10,06,17,4.60
2020,04,10,06,18,4.60
2020,04,10,06,19,4.60
2020,04,10,06,20,4.60
2020,04,10,06,21,4.60
2020,04,10,06,22,4.60
2020,04,10,06,23,4.60
2020,04,10,06,24,4.60
2020,04,10,06,25,4.60
2020,04,10,06,26,4.60
2020,04,10,06,27,4.60
2020,04,10,06,28,4.60
2020,04,10,06,29,4.60
2020,04,10,06,30,4.60
2020,04,10,06,31,4.60
2020,04,10,06,32,4.60
2020,04,10,06,33,4.60
2020,04,10,06,34,4.60
2020,04,10,06,35,4.60
2020,04,10,06,36,4.60
2020,04,10,06,37,4.50
2020,04,10,06,38,4.50
2020,04,10,06,39,4.50
2020,04,10,06,40,4.50
2020,04,10,06,41,4.50
2020,04,10,06,42,4.50
2020,04,10,06,43,4.50
2020,04,10,06,44,4.50
2020,04,10,06,45,4.50
2020,04,10,06,46,4.60
2020,04,10,06,47,4.60
2020,04,10,06,48,4.60
2020,04,10,06,49,4.60
2020,04,10,06,50,4.60
2020,04,10,06,51,4.60
2020,04,10,06,52,4.60
2020,04,10,06,53,4.60
2020,04,10,06,54,4.60
2020,04,10,06,55,4.60
2020,04,10,06,56,4.60
2020,04,10,06,57,4.60
2020,04,10,06,58,4.70
2020,04,10,06,59,4.70
2020,04,10,07,00,4.70
2020,04,10,07,01,4.70
2020,04,10,07,02,4.70
2020,04,10,07,03,4.80
2020,04,10,07,04,4.80
2020,04,10,07,05,4.80
2020,04,10,07,06,4.80
2020,04,10,07,07,4.80
2020,04,10,07,08,4.80
2020,04,10,07,09,4.90
2020,04,10,07,10,4.90
2020,04,10,07,11,4.90
2020,04,10,07,12,5.00
2020,04,10,07,13,5.00
2020,04,10,07,14,5.10
2020,04,10,07,15,5.10
2020,04,10,07,16,5.10
2020,04,10,07,17,5.20
2020,04,10,07,18,5.20
2020,04,10,07,19,5.20
2020,04,10,07,20,5.30
2020,04,10,07,21,5.30
2020,04,10,07,22,5.30
2020,04,10,07,23,5.30
2020,04,10,07,24,5.40
2020,04,10,07,25,5.40
2020,04,10,07,26,5.40
2020,04,10,07,27,5.50
2020,04,10,07,28,5.50
2020,04,10,07,29,5.60
2020,04,10,07,30,5.70
2020,04,10,07,31,5.70
2020,04,10,07,32,5.80
2020,04,10,07,33,5.80
2020,04,10,07,34,5.90
2020,04,10,07,35,6.00
2020,04,10,07,36,6.10
2020,04,10,07,37,6.20
2020,04,10,07,38,6.30
2020,04,10,07,39,6.40
2020,04,10,07,40,6.50
2020,04,10,07,41,6.60
2020,04,10,07,42,6.80
2020,04,10,07,43,6.80
2020,04,10,07,44,6.90
2020,04,10,07,45,7.00
2020,04,10,07,46,7.00
2020,04,10,07,47,7.10
2020,04,10,07,48,7.20
2020,04,10,07,49,7.30
2020,04,10,07,50,7.30
2020,04,10,07,51,7.40
2020,04,10,07,52,7.50
2020,04,10,07,53,7.60
2020,04,10,07,54,7.70
2020,04,10,07,55,7.80
2020,04,10,07,56,7.90
2020,04,10,07,57,7.90
2020,04,10,07,58,8.00
2020,04,10,07,59,8.10
2020,04,10,08,00,8.20
2020,04,10,08,01,8.30
2020,04,10,08,02,8.30
2020,04,10,08,03,8.40
2020,04,10,08,04,8.50
2020,04,10,08,05,8.60
2020,04,10,08,06,8.70
2020,04,10,08,07,8.80
2020,04,10,08,08,8.90
2020,04,10,08,09,9.00
2020,04,10,08,10,9.10
2020,04,10,08,11,9.20
2020,04,10,08,12,9.40
2020,04,10,08,13,9.50
2020,04,10,08,14,9.50
2020,04,10,08,15,9.60
2020,04,10,08,16,9.60
2020,04,10,08,17,9.70
2020,04,10,08,18,9.80
2020,04,10,08,19,9.80
2020,04,10,08,20,9.90
2020,04,10,08,21,9.90
2020,04,10,08,22,10.00
2020,04,10,08,23,10.10
2020,04,10,08,24,10.20
2020,04,10,08,25,10.30
2020,04,10,08,26,10.30
2020,04,10,08,27,10.40
2020,04,10,08,28,10.60
2020,04,10,08,29,10.70
2020,04,10,08,30,10.80
2020,04,10,08,31,10.90
2020,04,10,08,32,11.00
2020,04,10,08,33,11.10
2020,04,10,08,34,11.20
2020,04,10,08,35,11.30
2020,04,10,08,36,11.40
2020,04,10,08,37,11.50
2020,04,10,08,38,11.50
2020,04,10,08,39,11.60
2020,04,10,08,40,11.70
2020,04,10,08,41,11.80
2020,04,10,08,42,11.80
2020,04,10,08,43,11.90
2020,04,10,08,44,12.00
2020,04,10,08,45,12.10
2020,04,10,08,46,12.20
2020,04,10,08,47,12.30
2020,04,10,08,48,12.30
2020,04,10,08,49,12.40
2020,04,10,08,50,12.40
2020,04,10,08,51,12.50
2020,04,10,08,52,12.50
2020,04,10,08,53,12.60
2020,04,10,08,54,12.60
2020,04,10,08,55,12.60
2020,04,10,08,56,12.60
2020,04,10,08,57,12.60
2020,04,10,08,58,12.60
2020,04,10,08,59,12.60
2020,04,10,09,00,12.70
2020,04,10,09,01,12.70
2020,04,10,09,02,12.70
2020,04,10,09,03,12.70
2020,04,10,09,04,12.70
2020,04,10,09,05,12.80
2020,04,10,09,06,12.80
2020,04,10,09,07,12.80
2020,04,10,09,08,12.80
2020,04,10,09,09,12.80
2020,04,10,09,10,12.80
2020,04,10,09,11,12.90
2020,04,10,09,12,12.90
2020,04,10,09,13,12.90
2020,04,10,09,14,13.00
2020,04,10,09,15,13.10
2020,04,10,09,16,13.10
2020,04,10,09,17,13.10
2020,04,10,09,18,13.10
2020,04,10,09,19,13.10
2020,04,10,09,20,13.10
2020,04,10,09,21,13.00
2020,04,10,09,22,13.10
2020,04,10,09,23,13.10
2020,04,10,09,24,13.20
2020,04,10,09,25,13.30
2020,04,10,09,26,13.30
2020,04,10,09,27,13.30
2020,04,10,09,28,13.30
2020,04,10,09,29,13.30
2020,04,10,09,30,13.30
2020,04,10,09,31,13.30
2020,04,10,09,32,13.30
2020,04,10,09,33,13.30
2020,04,10,09,34,13.40
2020,04,10,09,35,13.40
2020,04,10,09,36,13.40
2020,04,10,09,37,13.40
2020,04,10,09,38,13.40
2020,04,10,09,39,13.40
2020,04,10,09,40,13.40
2020,04,10,09,41,13.50
2020,04,10,09,42,13.50
2020,04,10,09,43,13.60
2020,04,10,09,44,13.60
2020,04,10,09,45,13.60
2020,04,10,09,46,13.70
2020,04,10,09,47,13.70
2020,04,10,09,48,13.80
2020,04,10,09,49,13.80
2020,04,10,09,50,13.90
2020,04,10,09,51,13.90
2020,04,10,09,52,13.90
2020,04,10,09,53,13.90
2020,04,10,09,54,13.90
2020,04,10,09,55,13.90
2020,04,10,09,56,13.80
2020,04,10,09,57,13.80
2020,04,10,09,58,13.80
2020,04,10,09,59,13.80
2020,04,10,10,00,13.80
2020,04,10,10,01,13.80
2020,04,10,10,02,13.90
2020,04,10,10,03,13.90
2020,04,10,10,04,14.00
2020,04,10,10,05,14.00
2020,04,10,10,06,14.10
2020,04,10,10,07,14.20
2020,04,10,10,08,14.30
2020,04,10,10,09,14.30
2020,04,10,10,10,14.40
2020,04,10,10,11,14.40
2020,04,10,10,12,14.40
2020,04,10,10,13,14.40
2020,04,10,10,14,14.30
2020,04,10,10,15,14.30
2020,04,10,10,16,14.30
2020,04,10,10,17,14.30
2020,04,10,10,18,14.30
2020,04,10,10,19,14.30
2020,04,10,10,20,14.30
2020,04,10,10,21,14.30
2020,04,10,10,22,14.30
2020,04,10,10,23,14.30
2020,04,10,10,24,14.20
2020,04,10,10,25,14.20
2020,04,10,10,26,14.20
2020,04,10,10,27,14.20
2020,04,10,10,28,14.20
2020,04,10,10,29,14.10
2020,04,10,10,30,14.10
2020,04,10,10,31,14.10
2020,04,10,10,32,14.00
2020,04,10,10,33,14.00
2020,04,10,10,34,14.00
2020,04,10,10,35,14.00
2020,04,10,10,36,14.00
2020,04,10,10,37,14.00
2020,04,10,10,38,14.10
2020,04,10,10,39,14.10
2020,04,10,10,40,14.10
2020,04,10,10,41,14.10
2020,04,10,10,42,14.10
2020,04,10,10,43,14.10
2020,04,10,10,44,14.00
2020,04,10,10,45,13.90
2020,04,10,10,46,13.90
2020,04,10,10,47,13.90
2020,04,10,10,48,13.90
2020,04,10,10,49,13.80
2020,04,10,10,50,13.80
2020,04,10,10,51,13.80
2020,04,10,10,52,13.80
2020,04,10,10,53,13.70
2020,04,10,10,54,13.70
2020,04,10,10,55,13.80
2020,04,10,10,56,13.80
2020,04,10,10,57,13.80
2020,04,10,10,58,13.90
2020,04,10,10,59,14.00
2020,04,10,11,00,14.00
2020,04,10,11,01,14.00
2020,04,10,11,02,13.90
2020,04,10,11,03,13.90
2020,04,10,11,04,13.90
2020,04,10,11,05,13.90
2020,04,10,11,06,13.90
2020,04,10,11,07,13.90
2020,04,10,11,08,13.80
2020,04,10,11,09,13.90
2020,04,10,11,10,13.90
2020,04,10,11,11,14.00
2020,04,10,11,12,14.00
2020,04,10,11,13,14.10
2020,04,10,11,14,14.10
2020,04,10,11,15,14.10
2020,04,10,11,16,14.20
2020,04,10,11,17,14.20
2020,04,10,11,18,14.20
2020,04,10,11,19,14.20
2020,04,10,11,20,14.20
2020,04,10,11,21,14.30
2020,04,10,11,22,14.40
2020,04,10,11,23,14.50
2020,04,10,11,24,14.60
2020,04,10,11,25,14.70
2020,04,10,11,26,14.80
2020,04,10,11,27,14.90
2020,04,10,11,28,15.00
2020,04,10,11,29,15.10
2020,04,10,11,30,15.20
2020,04,10,11,31,15.30
2020,04,10,11,32,15.30
2020,04,10,11,33,15.30
2020,04,10,11,34,15.20
2020,04,10,11,35,15.20
2020,04,10,11,36,15.20
2020,04,10,11,37,15.10
2020,04,10,11,38,15.10
2020,04,10,11,39,15.10
2020,04,10,11,40,15.00
2020,04,10,11,41,15.00
2020,04,10,11,42,15.00
2020,04,10,11,43,15.00
2020,04,10,11,44,15.10
2020,04,10,11,45,15.10
2020,04,10,11,46,15.00
2020,04,10,11,47,14.90
2020,04,10,11,48,14.90
2020,04,10,11,49,14.90
2020,04,10,11,50,15.00
2020,04,10,11,51,15.00
2020,04,10,11,52,14.90
2020,04,10,11,53,14.90
2020,04,10,11,54,14.80
2020,04,10,11,55,14.80
2020,04,10,11,56,14.80
2020,04,10,11,57,14.80
2020,04,10,11,58,14.90
2020,04,10,11,59,14.90
2020,04,10,12,00,14.90
2020,04,10,12,01,14.90
2020,04,10,12,02,14.90
2020,04,10,12,03,14.90
2020,04,10,12,04,14.80
2020,04,10,12,05,14.80
2020,04,10,12,06,14.80
2020,04,10,12,07,14.70
2020,04,10,12,08,14.70
2020,04,10,12,09,14.70
2020,04,10,12,10,14.60
2020,04,10,12,11,14.60
2020,04,10,12,12,14.60
2020,04,10,12,13,14.70
2020,04,10,12,14,14.70
2020,04,10,12,15,14.80
2020,04,10,12,16,14.80
2020,04,10,12,17,14.90
2020,04,10,12,18,14.90
2020,04,10,12,19,15.00
2020,04,10,12,20,15.10
2020,04,10,12,21,15.10
2020,04,10,12,22,15.20
2020,04,10,12,23,15.20
2020,04,10,12,24,15.20
2020,04,10,12,25,15.20
2020,04,10,12,26,15.30
2020,04,10,12,27,15.30
2020,04,10,12,28,15.30
2020,04,10,12,29,15.30
2020,04,10,12,30,15.30
2020,04,10,12,31,15.30
2020,04,10,12,32,15.30
2020,04,10,12,33,15.30
2020,04,10,12,34,15.20
2020,04,10,12,35,15.10
2020,04,10,12,36,15.10
2020,04,10,12,37,15.00
2020,04,10,12,38,15.10
2020,04,10,12,39,15.10
2020,04,10,12,40,15.10
2020,04,10,12,41,15.10
2020,04,10,12,42,15.10
2020,04,10,12,43,15.10
2020,04,10,12,44,15.00
2020,04,10,12,45,14.90
2020,04,10,12,46,14.80
2020,04,10,12,47,14.70
2020,04,10,12,48,14.70
2020,04,10,12,49,14.60
2020,04,10,12,50,14.50
2020,04,10,12,51,14.50
2020,04,10,12,52,14.40
2020,04,10,12,53,14.40
2020,04,10,12,54,14.40
2020,04,10,12,55,14.50
2020,04,10,12,56,14.50
2020,04,10,12,57,14.50
2020,04,10,12,58,14.50
2020,04,10,12,59,14.60
2020,04,10,13,00,14.60
2020,04,10,13,01,14.60
2020,04,10,13,02,14.60
2020,04,10,13,03,14.70
2020,04,10,13,04,14.70
2020,04,10,13,05,14.70
2020,04,10,13,06,14.70
2020,04,10,13,07,14.70
2020,04,10,13,08,14.80
2020,04,10,13,09,14.80
2020,04,10,13,10,14.80
2020,04,10,13,11,14.80
2020,04,10,13,12,14.80
2020,04,10,13,13,14.80
2020,04,10,13,14,14.80
2020,04,10,13,15,14.80
2020,04,10,13,16,14.90
2020,04,10,13,17,14.90
2020,04,10,13,18,14.90
2020,04,10,13,19,15.00
2020,04,10,13,20,15.00
2020,04,10,13,21,14.90
2020,04,10,13,22,14.90
2020,04,10,13,23,14.90
2020,04,10,13,24,14.90
2020,04,10,13,25,14.90
2020,04,10,13,26,14.90
2020,04,10,13,27,14.90
2020,04,10,13,28,15.00
2020,04,10,13,29,15.00
2020,04,10,13,30,15.00
2020,04,10,13,31,15.00
2020,04,10,13,32,15.00
2020,04,10,13,33,14.90
2020,04,10,13,34,14.80
2020,04,10,13,35,14.80
2020,04,10,13,36,14.70
2020,04,10,13,37,14.70
2020,04,10,13,38,14.60
2020,04,10,13,39,14.50
2020,04,10,13,40,14.40
2020,04,10,13,41,14.30
2020,04,10,13,42,14.30
2020,04,10,13,43,14.20
2020,04,10,13,44,14.20
2020,04,10,13,45,14.20
2020,04,10,13,46,14.20
2020,04,10,13,47,14.20
2020,04,10,13,48,14.20
2020,04,10,13,49,14.30
2020,04,10,13,50,14.30
2020,04,10,13,51,14.30
2020,04,10,13,52,14.40
2020,04,10,13,53,14.40
2020,04,10,13,54,14.50
2020,04,10,13,55,14.60
2020,04,10,13,56,14.60
2020,04,10,13,57,14.70
2020,04,10,13,58,14.70
2020,04,10,13,59,14.80
2020,04,10,14,00,14.80
2020,04,10,14,01,14.90
2020,04,10,14,02,15.00
2020,04,10,14,03,15.10
2020,04,10,14,04,15.10
2020,04,10,14,05,15.20
2020,04,10,14,06,15.20
2020,04,10,14,07,15.30
2020,04,10,14,08,15.30
2020,04,10,14,09,15.30
2020,04,10,14,10,15.30
2020,04,10,14,11,15.40
2020,04,10,14,12,15.40
2020,04,10,14,13,15.50
2020,04,10,14,14,15.60
2020,04,10,14,15,15.70
2020,04,10,14,16,15.70
2020,04,10,14,17,15.70
2020,04,10,14,18,15.70
2020,04,10,14,19,15.70
2020,04,10,14,20,15.70
2020,04,10,14,21,15.70
2020,04,10,14,22,15.70
2020,04,10,14,23,15.70
2020,04,10,14,24,15.70
2020,04,10,14,25,15.70
2020,04,10,14,26,15.70
2020,04,10,14,27,15.70
2020,04,10,14,28,15.70
2020,04,10,14,29,15.70
2020,04,10,14,30,15.70
2020,04,10,14,31,15.70
2020,04,10,14,32,15.70
2020,04,10,14,33,15.70
2020,04,10,14,34,15.70
2020,04,10,14,35,15.80
2020,04,10,14,36,15.80
2020,04,10,14,37,15.80
2020,04,10,14,38,15.90
2020,04,10,14,39,15.90
2020,04,10,14,40,15.90
2020,04,10,14,41,15.90
2020,04,10,14,42,15.90
2020,04,10,14,43,15.90
2020,04,10,14,44,15.90
2020,04,10,14,45,15.90
2020,04,10,14,46,16.00
2020,04,10,14,47,16.00
2020,04,10,14,48,16.10
2020,04,10,14,49,16.10
2020,04,10,14,50,16.20
2020,04,10,14,51,16.20
2020,04,10,14,52,16.10
2020,04,10,14,53,16.10
2020,04,10,14,54,16.00
2020,04,10,14,55,16.00
2020,04,10,14,56,15.90
2020,04,10,14,57,15.90
2020,04,10,14,58,15.90
2020,04,10,14,59,15.80
2020,04,10,15,00,15.80
2020,04,10,15,01,15.80
2020,04,10,15,02,15.90
2020,04,10,15,03,15.90
2020,04,10,15,04,15.80
2020,04,10,15,05,15.80
2020,04,10,15,06,15.80
2020,04,10,15,07,15.80
2020,04,10,15,08,15.80
2020,04,10,15,09,15.80
2020,04,10,15,10,15.80
2020,04,10,15,11,15.70
2020,04,10,15,12,15.70
2020,04,10,15,13,15.70
2020,04,10,15,14,15.70
2020,04,10,15,15,15.70
2020,04,10,15,16,15.70
2020,04,10,15,17,15.60
2020,04,10,15,18,15.60
2020,04,10,15,19,15.60
2020,04,10,15,20,15.60
2020,04,10,15,21,15.50
2020,04,10,15,22,15.60
2020,04,10,15,23,15.60
2020,04,10,15,24,15.60
2020,04,10,15,25,15.60
2020,04,10,15,26,15.60
2020,04,10,15,27,15.60
2020,04,10,15,28,15.60
2020,04,10,15,29,15.60
2020,04,10,15,30,15.60
2020,04,10,15,31,15.70
2020,04,10,15,32,15.60
2020,04,10,15,33,15.60
2020,04,10,15,34,15.70
2020,04,10,15,35,15.70
2020,04,10,15,36,15.70
2020,04,10,15,37,15.80
2020,04,10,15,38,15.80
2020,04,10,15,39,15.80
2020,04,10,15,40,15.90
2020,04,10,15,41,15.90
2020,04,10,15,42,15.90
2020,04,10,15,43,15.90
2020,04,10,15,44,15.90
2020,04,10,15,45,15.80
2020,04,10,15,46,15.80
2020,04,10,15,47,15.80
2020,04,10,15,48,15.80
2020,04,10,15,49,15.80
2020,04,10,15,50,15.80
2020,04,10,15,51,15.70
2020,04,10,15,52,15.80
2020,04,10,15,53,15.80
2020,04,10,15,54,15.80
2020,04,10,15,55,15.80
2020,04,10,15,56,15.90
2020,04,10,15,57,15.90
2020,04,10,15,58,16.00
2020,04,10,15,59,16.00
2020,04,10,16,00,16.00
2020,04,10,16,01,16.10
2020,04,10,16,02,16.10
2020,04,10,16,03,16.10
2020,04,10,16,04,16.10
2020,04,10,16,05,16.10
2020,04,10,16,06,16.10
2020,04,10,16,07,16.10
2020,04,10,16,08,16.20
2020,04,10,16,09,16.10
2020,04,10,16,10,16.10
2020,04,10,16,11,16.10
2020,04,10,16,12,16.10
2020,04,10,16,13,16.10
2020,04,10,16,14,16.10
2020,04,10,16,15,16.10
2020,04,10,16,16,16.20
2020,04,10,16,17,16.20
2020,04,10,16,18,16.20
2020,04,10,16,19,16.20
2020,04,10,16,20,16.20
2020,04,10,16,21,16.10
2020,04,10,16,22,16.10
2020,04,10,16,23,16.10
2020,04,10,16,24,16.10
2020,04,10,16,25,16.20
2020,04,10,16,26,16.20
2020,04,10,16,27,16.20
2020,04,10,16,28,16.20
2020,04,10,16,29,16.10
2020,04,10,16,30,16.10
2020,04,10,16,31,16.10
2020,04,10,16,32,16.10
2020,04,10,16,33,16.10
2020,04,10,16,34,16.00
2020,04,10,16,35,15.90
2020,04,10,16,36,15.80
2020,04,10,16,37,15.80
2020,04,10,16,38,15.70
2020,04,10,16,39,15.60
2020,04,10,16,40,15.50
2020,04,10,16,41,15.50
2020,04,10,16,42,15.40
2020,04,10,16,43,15.30
2020,04,10,16,44,15.20
2020,04,10,16,45,15.20
2020,04,10,16,46,15.10
2020,04,10,16,47,15.10
2020,04,10,16,48,15.10
2020,04,10,16,49,15.10
2020,04,10,16,50,15.10
2020,04,10,16,51,15.10
2020,04,10,16,52,15.10
2020,04,10,16,53,15.10
2020,04,10,16,54,15.00
2020,04,10,16,55,15.00
2020,04,10,16,56,15.00
2020,04,10,16,57,14.90
2020,04,10,16,58,14.90
2020,04,10,16,59,14.90
2020,04,10,17,00,14.90
2020,04,10,17,01,14.90
2020,04,10,17,02,14.90
2020,04,10,17,03,14.90
2020,04,10,17,04,14.90
2020,04,10,17,05,14.90
2020,04,10,17,06,14.90
2020,04,10,17,07,14.90
2020,04,10,17,08,14.90
2020,04,10,17,09,14.90
2020,04,10,17,10,14.80
2020,04,10,17,11,14.90
2020,04,10,17,12,14.90
2020,04,10,17,13,14.90
2020,04,10,17,14,15.00
2020,04,10,17,15,15.00
2020,04,10,17,16,15.00
2020,04,10,17,17,15.10
2020,04,10,17,18,15.10
2020,04,10,17,19,15.10
2020,04,10,17,20,15.20
2020,04,10,17,21,15.20
2020,04,10,17,22,15.10
2020,04,10,17,23,15.10
2020,04,10,17,24,15.10
2020,04,10,17,25,15.00
2020,04,10,17,26,15.00
2020,04,10,17,27,14.90
2020,04,10,17,28,14.90
2020,04,10,17,29,14.90
2020,04,10,17,30,14.90
2020,04,10,17,31,14.90
2020,04,10,17,32,14.90
2020,04,10,17,33,14.90
2020,04,10,17,34,15.00
2020,04,10,17,35,15.00
2020,04,10,17,36,15.00
2020,04,10,17,37,15.10
2020,04,10,17,38,15.10
2020,04,10,17,39,15.10
2020,04,10,17,40,15.10
2020,04,10,17,41,15.10